Dewpoint
52 52 52 52 54 54 54 55 54 54 55 54 53 54 56 53 53 51 48 55 51 41 37 34 32 33 30 31 30 35 30 30 28 31 30 35 34 37 33 34 34 32 34 31 31 36 31 35 32 32 44 42 43 45
52 52 53 53 54 54 54 54 55 55 55 53 52 54 56 52 53 52 46 53 52 48 43 42 36 37 36 37 33 34 35 34 33 30 33 36 34 33 32 31 36 35 33 37 33 40 44 41 44 43 42 44 43 44
52 52 53 54 54 54 54 54 54 55 55 53 52 54 56 52 52 51 47 49 47 44 38 37 34 38 35 33 29 33 32 37 35 40 34 32 33 31 32 32 34 34 40 37 37 38 36 37 39 39 41 41 40 43
52 53 53 53 54 54 54 54 54 55 55 53 53 54 54 51 52 51 46 46 48 45 35 32 39 39 37 32 33 34 40 39 40 34 32 31 31 36 31 35 32 31 39 36 37 39 39 39 39 40 40 39 37 41
52 52 53 53 54 54 53 54 54 55 54 53 53 55 51 51 52 49 46 46 49 48 37 32 37 36 36 37 36 36 36 36 33 32 30 30 34 37 31 33 32 33 35 32 34 37 42 39 42 41 40 39 39 40
52 52 53 53 54 53 53 54 54 54 53 53 54 53 50 50 51 46 42 44 48 48 45 35 40 40 36 38 37 38 38 38 35 34 33 36 39 34 32 36 38 38 36 38 37 39 41 40 41 42 40 40 41 40
51 51 52 53 54 53 53 54 54 52 53 53 54 50 50 50 46 43 45 50 50 51 41 32 36 41 40 40 38 38 39 39 38 38 37 36 39 37 34 39 39 36 38 40 42 44 41 41 41 42 41 42 45 41
50 50 52 53 53 53 53 54 54 53 54 54 50 49 50 50 49 40 44 48 50 46 39 33 37 40 41 37 36 39 38 40 41 39 42 38 43 41 40 41 43 42 41 42 44 43 41 44 43 44 44 43 41 40
50 50 50 51 53 53 53 53 54 54 54 53 51 50 48 46 40 42 53 52 51 48 38 34 35 34 39 37 36 40 40 37 43 39 38 44 41 48 44 45 45 46 44 44 44 43 42 43 44 45 43 41 40 40
50 50 49 50 50 50 50 50 50 51 52 50 47 44 40 41 55 55 51 50 44 39 43 40 35 41 37 36 38 39 40 37 40 40 45 44 45 48 49 48 49 46 45 44 44 43 42 43 43 44 42 42 40 40
50 49 50 49 49 49 50 49 49 49 49 45 43 46 55 54 48 44 38 37 39 37 36 33 37 39 41 38 37 40 41 40 39 41 41 47 48 46 49 49 51 49 47 45 44 44 44 44 43 43 41 41 41 42
50 50 50 50 49 48 49 49 50 49 49 48 51 53 53 48 46 39 37 36 35 32 37 34 37 43 43 45 44 44 42 41 37 42 39 45 44 50 49 47 49 50 48 46 45 45 44 46 44 43 43 42 43 44
51 50 50 50 49 49 49 48 49 51 51 53 53 50 49 44 40 35 34 34 32 34 39 36 33 42 47 44 44 44 41 37 41 41 44 44 50 50 50 48 48 48 47 46 45 45 44 44 44 44 44 46 44 44
51 50 50 50 50 50 49 49 49 50 52 50 46 39 42 40 38 36 35 35 35 37 41 41 40 40 40 44 41 37 37 39 38 39 39 45 52 51 50 49 48 46 46 45 45 45 46 49 49 49 47 47 45 45
51 50 50 50 50 50 51 50 50 51 50 46 47 40 41 41 40 38 38 39 40 40 39 39 43 44 40 40 38 39 39 36 35 35 38 49 53 52 50 48 47 46 46 46 46 48 49 48 47 46 44 43 42 43
50 49 49 50 49 50 50 50 48 49 47 44 45 43 40 39 36 37 37 38 44 50 51 47 45 40 37 36 37 35 35 35 35 37 44 52 54 53 52 49 48 46 48 47 47 47 47 46 44 43 41 41 41 43
49 49 50 50 50 50 50 48 45 41 39 38 34 34 37 40 40 40 39 44 49 55 50 49 42 39 38 39 39 36 35 37 38 39 43 53 55 54 52 49 48 47 47 46 46 46 44 43 41 40 40 42 40 43
48 51 50 49 50 50 50 47 43 39 37 35 32 31 33 36 42 37 40 43 45 49 49 44 44 44 39 38 38 39 39 40 41 43 46 54 55 54 50 50 49 48 48 47 45 43 43 41 41 38 42 42 40 41
50 51 49 48 48 49 48 47 47 42 41 38 36 34 35 35 39 42 40 44 46 48 49 47 45 38 37 39 39 39 39 41 45 46 49 55 55 53 51 50 49 48 46 44 43 39 39 43 37 36 35 36 34 35
50 50 50 50 49 45 42 43 49 45 42 40 41 40 39 38 37 38 40 41 44 46 50 44 40 38 39 41 39 39 41 44 44 44 50 51 50 51 50 46 43 43 40 42 41 41 37 37 36 35 36 36 34 35
51 51 51 51 48 44 42 41 44 45 45 44 43 42 40 41 40 39 38 40 41 42 40 41 41 40 45 52 46 45 46 47 45 47 47 47 48 46 45 43 40 37 36 37 37 37 37 34 34 34 35 34 35 33
50 51 49 48 44 44 43 43 42 45 44 42 44 44 45 46 48 45 44 46 43 40 40 40 41 41 42 49 47 52 49 53 54 48 45 46 46 43 42 38 35 34 34 36 35 35 34 33 33 34 34 33 33 31
49 49 48 44 42 44 43 48 44 42 39 40 40 40 41 44 52 49 51 46 44 44 42 42 49 50 49 49 51 53 54 54 48 48 46 45 44 42 40 37 35 34 33 35 35 34 33 36 35 33 33 33 31 33
50 49 45 44 43 42 45 45 45 44 41 40 40 41 45 50 50 48 43 40 41 43 43 53 46 45 48 54 48 49 51 51 47 47 46 44 41 40 39 37 35 33 34 34 33 32 33 34 35 31 34 33 32 31
43 42 44 40 43 41 39 38 39 40 39 41 41 42 48 50 48 45 45 46 48 49 51 52 49 48 46 46 45 45 52 49 45 46 44 41 39 38 38 37 34 33 32 32 31 31 32 33 33 32 32 32 33 32
38 42 42 40 40 39 37 37 38 39 40 39 44 49 49 46 39 40 45 49 45 42 43 44 47 47 48 52 51 45 48 48 48 44 44 41 39 39 39 35 32 32 32 31 30 30 32 32 32 34 32 33 34 30
38 40 41 41 41 40 40 41 42 44 41 42 44 44 45 42 43 48 51 46 44 44 47 48 46 44 50 50 53 53 48 47 48 45 46 45 42 41 36 34 33 33 33 31 31 31 31 32 32 32 32 32 32 30
39 39 39 44 41 38 37 39 43 42 43 46 46 44 44 44 47 54 58 50 49 49 48 47 47 45 47 48 45 44 44 44 45 46 45 44 43 39 39 36 36 36 35 33 32 32 32 32 32 32 32 32 33 32
38 37 37 39 41 40 38 38 45 47 50 49 47 46 46 50 50 48 49 49 51 48 47 46 44 45 44 44 43 43 43 42 41 41 42 40 39 36 35 35 35 34 34 33 35 35 36 33 33 32 32 32 32 32
37 37 37 37 36 35 36 38 44 47 48 48 42 43 45 50 49 49 47 48 48 48 48 48 48 46 45 42 41 40 39 38 37 35 34 32 35 37 39 38 37 35 34 34 34 34 38 36 35 34 33 32 31 31
39 38 37 37 36 36 36 36 36 39 41 40 47 50 50 53 50 50 49 48 46 46 46 46 47 47 45 43 42 41 37 33 41 39 37 30 29 32 35 37 35 35 34 34 33 34 34 34 33 33 33 33 32 30
37 37 36 36 37 37 38 36 36 37 41 50 49 47 47 51 51 55 48 45 44 44 44 45 45 45 46 43 45 46 43 46 49 46 44 42 38 37 36 34 33 32 34 34 33 32 32 34 34 34 32 34 33 33
40 37 37 36 36 37 37 39 40 47 49 49 46 43 43 45 46 52 47 46 46 46 46 47 47 46 48 47 49 46 44 45 46 43 43 41 40 37 34 34 33 32 32 31 29 29 30 32 33 35 33 33 32 32
Lifted_Index
6 6 8 9 9 9 8 8 7 7 7 7 5 4 5 7 8 7 3 1 -0 -0 1 2 2 2 2 2 1 1 1 1 1 1 0 -0 -0 -0 0 0 -0 -1 -1 -1 -2 -1 -1 -0 -0 -1 -1 -1 -2 -2
7 7 8 8 8 8 7 7 7 7 7 7 5 4 5 6 8 7 4 1 -0 -0 0 1 2 2 2 2 2 1 1 1 1 1 0 0 0 0 0 0 0 -0 -0 -1 -1 -1 -0 -0 -0 -1 -1 -1 -1 -1
7 8 8 8 7 7 7 7 6 6 7 7 6 4 4 6 8 7 4 2 0 0 0 1 2 2 2 3 3 2 1 1 1 1 1 1 1 1 1 0 0 0 0 -0 -0 -0 0 0 0 0 0 1 0 0
8 8 8 7 7 7 7 6 6 7 7 7 6 4 4 6 8 7 5 3 1 0 0 1 1 2 3 3 3 2 2 2 2 2 1 1 1 1 1 1 1 1 0 0 0 0 1 1 1 1 1 2 2 1
8 8 7 7 7 7 7 6 6 7 7 7 6 4 4 6 7 7 5 3 1 0 -0 0 1 2 2 3 3 2 2 2 2 2 2 1 1 1 1 1 1 1 1 1 1 1 1 1 1 1 2 2 2 2
8 7 7 6 6 6 6 6 6 7 7 7 6 4 4 6 7 6 4 3 2 1 -0 -0 0 1 2 2 2 2 2 2 2 1 1 1 1 1 1 0 0 0 1 1 1 1 1 1 1 2 2 2 2 2
7 7 7 6 6 5 5 5 6 7 7 7 5 4 5 7 7 5 4 3 2 1 0 -0 -0 0 1 2 1 1 1 1 1 1 1 1 1 1 1 0 -0 0 0 1 1 1 1 1 1 2 2 2 2 2
7 7 7 6 5 5 5 6 6 7 7 6 5 5 6 7 6 5 4 3 2 1 1 -0 -1 -0 1 1 1 1 1 0 0 0 0 -0 -0 0 0 -0 -1 -0 -0 0 0 1 1 1 1 1 1 2 2 2
7 7 7 7 6 5 5 6 7 6 6 5 5 5 5 5 5 4 4 3 2 1 0 -0 -1 -1 0 1 0 0 -0 -0 -1 -1 -1 -1 -1 -1 -1 -1 -1 -1 -0 -0 0 1 1 1 1 1 1 2 2 2
7 7 7 7 6 5 6 6 6 5 5 5 5 3 3 3 3 3 3 2 2 1 0 -0 -1 -1 -0 0 -0 -0 -1 -1 -1 -1 -1 -1 -1 -1 -1 -1 -1 -1 -1 -0 0 0 1 1 1 1 1 2 2 3
7 7 7 8 7 6 5 5 4 4 4 4 3 1 1 1 2 2 2 2 2 2 1 1 -0 -1 -1 -1 -1 -1 -1 -1 -1 -1 -2 -2 -2 -2 -1 -1 -1 -1 -1 -0 0 0 1 1 1 1 2 2 2 2
6 6 7 8 8 6 5 4 3 3 3 3 1 -0 -0 1 1 2 2 2 2 2 2 1 0 -1 -1 -2 -2 -2 -2 -2 -2 -2 -2 -2 -2 -2 -1 -1 -1 -1 -1 -0 0 0 1 1 1 1 1 1 2 2
6 5 6 7 7 6 5 4 3 3 3 2 1 0 0 1 1 2 2 2 2 2 1 1 0 -1 -1 -2 -2 -2 -2 -2 -2 -2 -2 -2 -2 -2 -1 -1 -1 -0 -0 0 1 1 1 1 1 1 1 1 1 2
5 5 5 6 6 6 5 5 4 3 2 2 2 1 1 1 1 1 1 2 2 1 1 1 0 -0 -1 -1 -2 -2 -2 -2 -1 -1 -2 -2 -2 -2 -1 -0 -0 0 1 1 1 1 0 0 0 1 1 2 2 2
5 4 4 5 5 6 6 5 4 4 3 3 2 2 1 1 1 1 1 1 1 0 1 1 0 0 -0 -0 -1 -1 -1 -1 -1 -1 -2 -2 -2 -1 -1 0 1 1 1 1 1 0 0 0 1 1 2 3 3 3
5 4 3 4 5 6 6 6 5 4 4 3 3 2 1 1 1 1 1 0 -0 -1 -1 -0 0 -0 -0 -0 -1 -1 -1 -1 -1 -1 -2 -2 -2 -1 -0 1 1 1 1 1 1 1 1 1 2 2 3 4 4 4
4 4 3 4 5 6 6 5 5 4 4 4 3 3 2 1 1 1 1 0 -1 -1 -1 -0 -0 -0 -0 -1 -1 -1 -1 -1 -1 -1 -1 -2 -2 -1 0 1 1 2 2 2 2 2 2 2 3 3 4 4 4 4
4 4 4 4 5 5 5 4 4 4 3 3 3 3 2 2 1 1 1 0 -1 -1 -1 -0 -0 -0 -1 -1 -1 -1 -1 -1 -1 -1 -1 -1 -1 -0 1 1 2 2 3 3 3 3 3 3 4 4 4 4 4 4
3 4 4 4 4 4 4 3 3 2 2 2 2 2 2 2 1 1 1 0 -1 -1 -1 -1 -1 -1 -1 -1 -1 -1 -1 -1 -1 -1 -1 -1 -1 0 1 2 3 3 4 4 4 4 4 4 4 4 4 5 5 5
4 4 4 4 4 4 3 3 2 2 1 1 1 1 1 1 1 1 0 0 -0 -1 -1 -1 -1 -1 -1 -1 -1 -0 -1 -1 -1 -1 -0 -0 0 1 2 3 4 4 5 5 4 4 4 4 4 4 5 5 5 5
4 4 4 4 4 3 3 2 2 1 1 0 0 -0 -0 0 0 0 0 -0 -0 -1 -1 -1 -2 -1 -1 -1 -1 -1 -1 -1 -1 -0 0 1 1 2 3 4 5 5 5 5 5 5 5 5 5 5 5 5 5 5
4 4 4 3 3 3 3 2 2 1 1 1 0 0 0 0 -0 -0 -0 -1 -1 -1 -1 -1 -1 -1 -1 -1 -2 -2 -1 -1 -1 -0 1 1 1 2 3 4 5 5 5 5 5 5 5 5 5 5 5 5 5 5
4 3 3 3 3 3 3 2 2 1 1 1 1 0 0 -0 -1 -1 -1 -1 -1 -1 -1 -1 -1 -1 -1 -1 -2 -2 -2 -1 -1 -0 1 1 2 3 4 5 5 5 5 5 5 5 5 5 5 5 5 5 5 5
4 3 3 3 2 2 2 2 1 1 1 1 0 0 -0 -1 -1 -1 -1 -1 -1 -1 -1 -1 -1 -1 -1 -1 -1 -1 -1 -1 -0 0 1 2 2 3 4 4 5 5 5 5 5 5 5 5 5 5 5 4 5 5
3 3 3 2 2 2 2 1 1 1 0 0 -0 -0 -1 -1 -1 -1 -1 -1 -1 -1 -1 -1 -1 -1 -1 -1 -1 -0 -1 -0 0 1 1 2 3 3 4 4 5 5 5 5 5 5 5 5 5 5 4 4 4 5
3 3 2 2 1 1 1 1 1 0 0 0 -0 -0 -1 -1 -0 -0 -1 -1 -1 -1 -1 -1 -1 -1 -1 -1 -0 -0 -0 -0 0 1 2 2 3 3 4 4 5 5 5 5 5 5 5 4 4 4 4 4 4 5
3 2 2 1 1 1 1 1 1 1 1 1 1 0 0 0 0 -0 -1 -1 -1 -1 -0 -0 -0 -0 -1 -1 -0 -0 -0 0 1 1 2 2 2 3 3 4 5 5 5 5 5 4 4 4 4 4 3 3 4 4
3 2 2 1 1 1 1 1 1 2 2 2 1 1 1 0 -0 -1 -1 -1 -1 -1 -1 -0 -0 -0 -0 -0 0 1 1 1 1 2 2 2 2 3 3 4 4 5 5 4 4 4 4 3 3 3 3 3 3 3
3 2 2 2 2 2 2 2 2 2 2 2 1 1 0 -0 -1 -1 -1 -1 -1 -1 -1 -1 -0 -0 0 1 1 1 2 2 2 3 3 3 3 3 3 4 4 5 5 4 4 4 3 3 3 3 3 3 3 3
3 3 3 2 2 2 2 1 1 1 1 1 0 -0 -1 -1 -1 -1 -1 -1 -1 -1 -1 -1 -1 -0 0 1 2 2 3 3 4 4 4 4 4 4 3 4 4 4 5 4 4 4 3 3 3 3 3 3 3 3
3 3 3 2 2 2 1 1 1 1 0 -0 -1 -1 -1 -1 -1 -1 -0 0 0 0 0 0 0 0 1 1 2 2 3 4 4 4 5 5 5 4 4 4 4 4 4 4 4 3 3 3 2 3 3 3 3 3
3 3 2 2 2 2 1 1 1 -0 -1 -1 -1 -1 -1 -1 -1 -0 1 2 2 2 2 2 2 2 2 2 2 3 3 3 3 3 4 4 4 4 4 4 4 4 4 4 4 3 3 2 2 2 2 2 2 2
3 2 2 2 2 1 1 1 0 -1 -1 -1 -1 -1 -0 -0 -0 0 1 2 3 3 3 3 3 3 3 3 3 3 3 3 3 3 3 3 3 3 4 4 4 4 4 4 4 3 3 2 2 2 2 2 2 2